Weather History for Thief River Falls, MN

Change the Weather History Date:

Friday, December 7, 2012

  Actual Average Record
Temperature  
Mean Temperature 12 °F -  
Max Temperature 19 °F 24 °F 42 °F (1990)
Min Temperature 6 °F 11 °F -28 °F (1972)
Degree Days  
Heating Degree Days 52    
Moisture  
Dew Point 7 °F    
Average Humidity 80    
Maximum Humidity 100    
Minimum Humidity 68    
Precipitation  
Precipitation 0.00 in - - ()
Sea Level Pressure  
Sea Level Pressure 30.05 in    
Wind  
Wind Speed 6 mph (North)    
Max Wind Speed 12 mph    
Max Gust Speed -    
Visibility 10 miles    
Events      
Averages and records for this station are not official NWS values.
T = Trace of Precipitation, MM = Missing Value Source: NWS Daily Summary

Daily Weather History Graph

Daily Weather History Graph

Search for Another Location

Airport:

Trip Planner

Search our weather history database for the weather conditions in past years. The results will help you decide how hot, cold, wet, or windy it might be!

Date:

Astronomy

Dec. 07, 2012 Rise Set
Actual Time 8:01 AM CST 4:31 PM CST
Civil Twilight 7:25 AM CST 5:07 PM CST
Nautical Twilight 6:45 AM CST 5:46 PM CST
Astronomical Twilight 6:08 AM CST 6:24 PM CST
Moon 12:56 AM CST (12/7) 12:52 PM CST (12/7)
Length of Visible Light 9h 42m
Length of Day
8h 30m
Last Quarter, 38% of the Moon is Illuminated
Dec 7
Last Quarter
Dec 13
New
Dec 19
First Quarter
Dec 28
Full
Jan 4
Last Quarter

Hourly Weather History & Observations

Time (CST) Temp. Windchill Dew Point Humidity Pressure Visibility Wind Dir Wind Speed Gust Speed Precip Events Conditions
12:15 AM 19.4 °F 7.2 °F 14.0 °F 80% 29.98 in 10.0 mi WNW 11.5 mph - N/A   Partly Cloudy
12:35 AM 17.6 °F 6.4 °F 12.2 °F 79% 29.98 in 10.0 mi NW 9.2 mph - N/A   Clear
12:55 AM 15.8 °F 4.2 °F 12.2 °F 86% 29.98 in 10.0 mi NW 9.2 mph - N/A   Clear
1:15 AM 15.8 °F 3.4 °F 10.4 °F 79% 29.98 in 10.0 mi NW 10.4 mph - N/A   Clear
1:35 AM 15.8 °F 5.1 °F 10.4 °F 79% 29.98 in 10.0 mi NW 8.1 mph - N/A   Clear
1:55 AM 14.0 °F 5.1 °F 10.4 °F 86% 29.99 in 10.0 mi NW 5.8 mph - N/A   Clear
2:15 AM 12.2 °F 2.9 °F 10.4 °F 92% 29.99 in 10.0 mi NW 5.8 mph - N/A   Clear
2:35 AM 12.2 °F 4.3 °F 8.6 °F 85% 29.99 in 10.0 mi NW 4.6 mph - N/A   Clear
2:55 AM 12.2 °F 4.3 °F 6.8 °F 79% 30.00 in 10.0 mi NW 4.6 mph - N/A   Clear
3:15 AM 12.2 °F 6.1 °F 8.6 °F 85% 30.01 in 10.0 mi WNW 3.5 mph - N/A   Clear
3:35 AM 12.2 °F 4.3 °F 8.6 °F 85% 30.01 in 10.0 mi WNW 4.6 mph - N/A   Clear
3:55 AM 12.2 °F 2.9 °F 6.8 °F 79% 30.01 in 10.0 mi WNW 5.8 mph - N/A   Clear
4:15 AM 10.4 °F 0.8 °F 6.8 °F 85% 30.00 in 10.0 mi NNW 5.8 mph - N/A   Clear
4:35 AM 10.4 °F 0.8 °F 6.8 °F 85% 30.00 in 10.0 mi NNW 5.8 mph - N/A   Clear
4:55 AM 10.4 °F 2.2 °F 6.8 °F 85% 30.01 in 10.0 mi NNW 4.6 mph - N/A   Clear
5:15 AM 10.4 °F 2.2 °F 6.8 °F 85% 30.01 in 10.0 mi NNW 4.6 mph - N/A   Clear
5:35 AM 8.6 °F -1.3 °F 6.8 °F 92% 30.01 in 10.0 mi NNW 5.8 mph - N/A   Clear
6:15 AM 8.6 °F 0.1 °F 5.0 °F 85% 30.02 in 10.0 mi NNW 4.6 mph - N/A   Clear
6:35 AM 8.6 °F 0.1 °F 5.0 °F 85% 30.03 in 10.0 mi NW 4.6 mph - N/A   Clear
6:55 AM 8.6 °F 0.1 °F 6.8 °F 92% 30.03 in 10.0 mi NW 4.6 mph - N/A   Clear
7:15 AM 8.6 °F 0.1 °F 5.0 °F 85% 30.04 in 10.0 mi NNW 4.6 mph - N/A   Clear
7:35 AM 8.6 °F 0.1 °F 6.8 °F 92% 30.04 in 10.0 mi NW 4.6 mph - N/A   Clear
7:55 AM 6.8 °F -2.0 °F 6.8 °F 100% 30.04 in 10.0 mi NNW 4.6 mph - N/A   Clear
8:15 AM 6.8 °F - 6.8 °F 100% 30.05 in 10.0 mi Calm Calm - N/A   Clear
8:35 AM 8.6 °F - 6.8 °F 92% 30.06 in 10.0 mi Calm Calm - N/A   Clear
8:55 AM 8.6 °F - 6.8 °F 92% 30.07 in 10.0 mi Calm Calm - N/A   Clear
9:15 AM 8.6 °F - 6.8 °F 92% 30.07 in 10.0 mi Calm Calm - N/A   Clear
9:35 AM 8.6 °F - 6.8 °F 92% 30.07 in 10.0 mi Calm Calm - N/A   Clear
9:55 AM 10.4 °F 0.8 °F 6.8 °F 85% 30.08 in 10.0 mi NW 5.8 mph - N/A   Clear
10:15 AM 10.4 °F 2.2 °F 6.8 °F 85% 30.08 in 9.0 mi NNW 4.6 mph - N/A   Clear
10:35 AM 12.2 °F 1.7 °F 8.6 °F 85% 30.09 in 10.0 mi North 6.9 mph - N/A   Clear
10:55 AM 12.2 °F 0.7 °F 10.4 °F 92% 30.08 in 10.0 mi North 8.1 mph - N/A   Clear
11:15 AM 14.0 °F 2.9 °F 10.4 °F 86% 30.09 in 10.0 mi North 8.1 mph - N/A   Clear
11:35 AM 15.8 °F 7.2 °F 8.6 °F 73% 30.08 in 10.0 mi North 5.8 mph - N/A   Clear
11:55 AM 15.8 °F 5.1 °F 8.6 °F 73% 30.08 in 10.0 mi North 8.1 mph - N/A   Partly Cloudy
12:15 PM 15.8 °F 7.2 °F 10.4 °F 79% 30.08 in 10.0 mi North 5.8 mph - N/A   Mostly Cloudy
12:35 PM 17.6 °F 9.3 °F 10.4 °F 73% 30.08 in 10.0 mi NNE 5.8 mph - N/A   Overcast
12:55 PM 15.8 °F - 10.4 °F 79% 30.08 in 9.0 mi Calm Calm - N/A   Overcast
1:15 PM 15.8 °F 8.6 °F 8.6 °F 73% 30.07 in 10.0 mi NNE 4.6 mph - N/A   Overcast
1:35 PM 17.6 °F 9.3 °F 8.6 °F 68% 30.07 in 10.0 mi NNE 5.8 mph - N/A   Overcast
1:55 PM 17.6 °F 9.3 °F 10.4 °F 73% 30.06 in 10.0 mi North 5.8 mph - N/A   Overcast
2:15 PM 15.8 °F 7.2 °F 8.6 °F 73% 30.07 in 10.0 mi NNW 5.8 mph - N/A   Overcast
2:35 PM 17.6 °F 9.3 °F 8.6 °F 68% 30.07 in 10.0 mi North 5.8 mph - N/A   Overcast
2:55 PM 17.6 °F 9.3 °F 8.6 °F 68% 30.07 in 10.0 mi North 5.8 mph - N/A   Overcast
3:15 PM 17.6 °F 7.3 °F 8.6 °F 68% 30.07 in 10.0 mi North 8.1 mph - N/A   Overcast
3:35 PM 15.8 °F 6.1 °F 8.6 °F 73% 30.07 in 10.0 mi North 6.9 mph - N/A   Overcast
3:55 PM 15.8 °F 6.1 °F 8.6 °F 73% 30.07 in 10.0 mi NNE 6.9 mph - N/A   Overcast
4:15 PM 15.8 °F 6.1 °F 6.8 °F 68% 30.08 in 10.0 mi North 6.9 mph - N/A   Mostly Cloudy
4:35 PM 15.8 °F - 6.8 °F 68% 30.08 in 10.0 mi Calm Calm - N/A   Mostly Cloudy
4:55 PM 15.8 °F - 6.8 °F 68% 30.08 in 10.0 mi Calm Calm - N/A   Partly Cloudy
5:15 PM 14.0 °F - 6.8 °F 73% 30.08 in 10.0 mi Calm Calm - N/A   Clear
5:35 PM 12.2 °F - 6.8 °F 79% 30.08 in 10.0 mi Calm Calm - N/A   Clear
5:55 PM 12.2 °F - 6.8 °F 79% 30.08 in 8.0 mi Calm Calm - N/A   Clear
6:15 PM 12.2 °F - 6.8 °F 79% 30.08 in 10.0 mi Calm Calm - N/A   Clear
6:35 PM 12.2 °F 6.1 °F 6.8 °F 79% 30.09 in 10.0 mi NNE 3.5 mph - N/A   Clear
6:55 PM 12.2 °F 2.9 °F 5.0 °F 73% 30.09 in 10.0 mi NNE 5.8 mph - N/A   Clear
7:15 PM 10.4 °F 0.8 °F 5.0 °F 79% 30.08 in 10.0 mi NNE 5.8 mph - N/A   Clear
7:35 PM 10.4 °F -0.4 °F 3.2 °F 73% 30.09 in 10.0 mi NNE 6.9 mph - N/A   Clear
7:55 PM 10.4 °F -1.5 °F 5.0 °F 79% 30.09 in 10.0 mi NNE 8.1 mph - N/A   Clear
8:15 PM 10.4 °F -0.4 °F 3.2 °F 73% 30.08 in 10.0 mi NNE 6.9 mph - N/A   Clear
8:35 PM 10.4 °F -0.4 °F 3.2 °F 73% 30.08 in 10.0 mi NE 6.9 mph - N/A   Clear
8:55 PM 10.4 °F -0.4 °F 3.2 °F 73% 30.09 in 10.0 mi NNE 6.9 mph - N/A   Clear
9:15 PM 8.6 °F -2.6 °F 1.4 °F 73% 30.08 in 10.0 mi NNE 6.9 mph - N/A   Clear
9:35 PM 8.6 °F -2.6 °F 3.2 °F 79% 30.08 in 10.0 mi NNE 6.9 mph - N/A   Clear
9:55 PM 8.6 °F -3.7 °F 3.2 °F 79% 30.08 in 10.0 mi NNE 8.1 mph - N/A   Clear
10:15 PM 8.6 °F -2.6 °F 3.2 °F 79% 30.08 in 10.0 mi NNE 6.9 mph - N/A   Clear
10:35 PM 8.6 °F -2.6 °F 1.4 °F 73% 30.08 in 10.0 mi NNE 6.9 mph - N/A   Clear
10:55 PM 6.8 °F -4.8 °F 1.4 °F 79% 30.07 in 10.0 mi NE 6.9 mph - N/A   Clear
11:15 PM 6.8 °F -3.5 °F 1.4 °F 79% 30.07 in 10.0 mi NE 5.8 mph - N/A   Clear
11:35 PM 6.8 °F -4.8 °F 1.4 °F 79% 30.07 in 10.0 mi NE 6.9 mph - N/A   Clear
11:55 PM 6.8 °F -3.5 °F 1.4 °F 79% 30.07 in 10.0 mi NE 5.8 mph - N/A   Clear